This is the latest recevied weather packets stored in our database for station/object IU1DOF-3. If no packets are shown the sender has not sent any weather packets the latest 10 day(s).
| Time | Temp. | Humidity | Pressure | Rain* | Wind** | Luminosity | Snow |
|---|---|---|---|---|---|---|---|
| 1777830110 | 15.56° C | 63% | 1015.3 hPa | 0 mm | - | - | - |
| 1777829500 | 16.11° C | 63% | 1015.5 hPa | 0 mm | - | - | - |
| 1777828878 | 16.11° C | 63% | 1015.7 hPa | 0 mm | - | - | - |
| 1777828253 | 16.11° C | 63% | 1015.6 hPa | 0 mm | - | - | - |
| 1777827640 | 16.67° C | 62% | 1015.7 hPa | 0 mm | - | - | - |
| 1777827022 | 17.22° C | 61% | 1015.4 hPa | 0 mm | - | - | - |
| 1777826398 | 17.22° C | 60% | 1015.3 hPa | 0 mm | - | - | - |
| 1777825780 | 17.22° C | 59% | 1015.3 hPa | 0 mm | - | - | - |
| 1777825166 | 17.78° C | 59% | 1015.3 hPa | 0 mm | - | - | - |
| 1777824542 | 17.78° C | 57% | 1015.3 hPa | 0 mm | - | - | - |
| 1777823919 | 17.22° C | 60% | 1015.5 hPa | 0 mm | - | - | - |
| 1777823294 | 17.22° C | 60% | 1015.7 hPa | 0 mm | - | - | - |
| 1777822670 | 17.22° C | 60% | 1015.7 hPa | 0 mm | - | - | - |
| 1777822062 | 17.78° C | 61% | 1015.5 hPa | 0 mm | - | - | - |
| 1777821437 | 17.22° C | 61% | 1015.6 hPa | 0 mm | - | - | - |
| 1777820814 | 17.78° C | 60% | 1015.5 hPa | 0 mm | - | - | - |
| 1777820200 | 17.78° C | 58% | 1015.6 hPa | 0 mm | - | - | - |
| 1777819582 | 17.78° C | 60% | 1015.6 hPa | 0 mm | - | - | - |
| 1777818958 | 17.78° C | 59% | 1015.7 hPa | 0 mm | - | - | - |
| 1777818340 | 18.33° C | 61% | 1015.9 hPa | 0 mm | - | - | - |
| 1777817726 | 18.33° C | 60% | 1015.8 hPa | 0 mm | - | - | - |
| 1777817102 | 18.89° C | 59% | 1015.9 hPa | 0 mm | - | - | - |
| 1777816478 | 18.33° C | 61% | 1016.3 hPa | 0 mm | - | - | - |
| 1777815855 | 17.22° C | 61% | 1016.1 hPa | 0 mm | - | - | - |
| 1777815231 | 17.78° C | 62% | 1016.3 hPa | 0 mm | - | - | - |
* Rain latest hour (hover to see other rain measurements)
** Current wind speed in m/s (hover to see current wind gust speed)